Location: Bougourou
(13.1479°N, 5.0212°W)
Time: 09:26:51
(UTC+00:00)

Daily predictions for brighter satellites

Satellite Brightness Start Highest point End
(mag) Time Altitude Azimuth Time Altitude Azimuth Time Altitude Azimuth
Cosmos 2333 4.4 18:26:24 10° NNW 18:32:04 83° WSW 18:37:39 10° SSE
Cosmos 2227 Rocket 3.4 18:27:39 10° SW 18:33:01 45° WNW 18:38:25 10° N
Cosmos 2322 4.2 18:28:02 10° NNW 18:33:39 67° WSW 18:39:15 10° S
Cosmos 2263 Rocket 4.0 18:35:53 10° ESE 18:37:12 11° ESE 18:38:30 10° E
Cosmos-2242 4.1 18:37:13 10° NNE 18:40:40 24° E 18:44:05 10° SE
Cosmos 1461 3.3 18:36:33 10° N 18:40:55 47° ENE 18:45:22 10° SE
Cosmos 1048 Rocket 3.9 18:36:26 10° N 18:41:32 80° ENE 18:46:39 10° SSE
Cosmos 1959 Rocket 4.5 18:36:43 10° S 18:42:54 68° E 18:49:01 10° N
ADEOS Rocket 3.7 18:37:40 10° NNE 18:44:33 50° ESE 18:51:55 10° S
Cosmos 1703 3.3 18:40:59 10° S 18:44:50 60° E 18:48:44 10° NNE
SWIFT 3.0 18:43:04 10° W 18:47:05 43° N 18:50:55 11° ENE
OAO 3 Rocket 3.1 18:44:49 10° SW 18:49:27 89° NW 18:53:53 11° NE
Cosmos 2219 Rocket 2.2 18:44:02 10° NNW 18:49:42 89° WSW 18:55:19 10° SSE
Cosmos 1953 Rocket 3.8 18:45:43 10° S 18:50:09 77° W 18:54:37 10° N
Cosmos 2366 rocket 4.0 18:47:59 10° S 18:54:08 83° E 19:00:20 10° N
Meteor 2-1 Rocket 4.2 18:49:08 10° N 18:54:41 84° E 19:00:19 10° S
COSMOS 2428 2.9 18:50:49 10° NNW 18:56:32 80° WSW 19:02:14 10° SSE
CZ-4 R/B 1.3 18:53:03 10° SSE 18:56:55 62° ENE 19:00:52 10° N
Ariane Rocket 4.5 18:55:40 10° ESE 18:58:22 15° ENE 19:00:26 12° NE
GPS 2-05 Rocket1 2.2 18:56:39 10° SW 18:59:08 54° SE 19:00:36 21° ENE
Hubble Space Telescope 3.8 18:58:50 10° SW 19:00:26 12° SSW 19:02:02 10° S
Intelsat 5-2 Rocket 2.7 18:59:31 10° WSW 19:02:12 78° SSE 19:06:11 17° ENE
Okean-O 3.8 18:58:15 10° S 19:02:29 46° W 19:06:44 10° NNW
CSL-04 Debris 4.2 19:01:48 10° SSE 19:07:02 55° ENE 19:12:16 10° N
NOSS 3-2 (A) 4.1 19:04:06 10° SSE 19:08:38 27° ESE 19:11:09 19° ENE
GPS 2-18 Rocket1 3.8 19:07:21 10° WNW 19:10:50 36° NNE 19:12:27 24° ENE
Cosmos 494 Rocket 3.9 19:08:53 10° NNW 19:14:00 89° ENE 19:19:09 10° SSE
Atlas Centaur 2 3.8 19:10:52 10° NW 19:14:22 19° N 19:17:49 12° NNE
CZ-2D R/B 3.2 19:11:46 10° SSE 19:15:29 56° ENE 19:19:12 10° N
Meteor 2-10 Rocket 3.6 19:11:43 10° N 19:16:41 50° E 19:21:31 10° SSE
GPS 2-12 Rocket1 3.4 19:14:13 10° WNW 19:18:55 54° NNE 19:21:13 28° ENE
CENTAUR R/B 4.1 19:18:27 10° SE 19:18:46 10° ESE 19:18:46 10° ESE
Meteor 2-12 Rocket 4.3 19:17:03 10° S 19:23:07 79° E 19:29:08 10° N
CZ-4C R/B 3.1 19:15:10 10° NNW 19:23:16 68° ENE 19:31:40 10° SSE
NOSS 0 Rocket 3.9 19:19:13 10° NNW 19:25:24 88° WSW 19:31:33 10° SSE
GPS 2-14 Rocket1 3.7 19:22:13 10° SW 19:25:49 33° SSE 19:27:06 26° ESE
Fermi 4.0 19:23:05 10° SW 19:27:06 57° SSE 19:28:23 38° E
USA 234 3.1 19:22:37 10° SE 19:29:09 77° NE 19:35:40 10° NNW
Atlas 2A Centaur Rocket 3.4 19:22:58 10° W 19:31:36 31° NW 19:33:22 21° NNE
CSL-04 Rocket 3.8 19:28:39 10° S 19:34:02 75° WSW 19:39:31 10° NNW
Cosmos 1727 Rocket 3.9 19:32:40 10° N 19:38:44 60° E 19:44:47 10° SSE
H-2A ROCKET BODY 3.7 19:39:54 10° NNW 19:40:16 10° NNW 19:40:37 10° N
Cosmos 2237 Rocket 2.1 19:36:17 10° NNW 19:41:55 90° SW 19:47:31 10° SSE
Ariane H10+ 4.0 19:39:24 10° SSW 19:42:30 19° SSE 19:44:58 16° SE
USA 238 DEB 3.5 19:38:06 10° SSW 19:44:42 78° ESE 19:48:09 31° NNE
USA 238 3.5 19:38:14 10° SSW 19:44:49 77° ESE 19:48:13 31° NNE
Cosmos 2227 4.2 19:39:30 10° SSW 19:45:16 86° WNW 19:48:54 24° NNE
In-Cosmos 22 Rocket 4.5 19:43:05 10° SSE 19:48:35 45° E 19:48:37 45° E
Cosmos 1455 3.5 19:46:18 10° NNW 19:49:49 39° W 19:53:19 10° SSW
FALCON 9 R/B 4.2 19:28:50 10° WSW 19:50:21 41° NW 19:55:01 21° NNE
Orbus 21S 4.4 19:48:59 10° S 19:49:16 12° S 19:49:16 12° S
Cosmos 2058 4.2 19:47:49 10° S 19:49:54 28° SSE 19:49:54 28° SSE
Delta 7925 Rocket 3.9 19:53:51 10° WNW 20:01:21 86° SSW 20:02:54 54° ESE
Cosmos 1821 Rocket 4.3 19:56:49 10° SSW 20:03:09 66° W 20:09:28 10° N
Cosmos 1371 Rocket 3.9 19:59:47 10° SSW 20:04:57 84° WNW 20:05:28 72° N
Cosmos 1076 Rocket 3.9 20:02:08 10° S 20:05:39 57° SW 20:05:39 57° SW
ASTRO E2 3.9 20:04:43 10° WNW 20:07:20 38° W 20:07:20 38° W
USA 215 3.6 20:15:45 48° SE 20:15:45 48° SE 20:21:31 10° SSW
Cosmos 2263 Rocket 2.9 20:15:18 10° SSW 20:20:39 50° WNW 20:21:52 42° NW
Centaur AC-42 4.1 19:49:20 10° WSW 20:28:15 43° S 20:30:34 37° SE
Aurora 2 Rocket 4.3 20:21:06 10° WNW 20:29:59 53° N 20:29:59 53° N
Ariane Rocket 4.4 20:32:23 10° SSW 20:36:57 35° W 20:40:40 14° NW
NOSS 3-2 (C) 4.1 20:32:09 10° SSW 20:35:53 44° SW 20:35:53 44° SW
ATLAS 3B R/B 3.9 20:39:53 10° SSW 20:43:23 32° S 20:43:23 32° S
CENTAUR R/B 4.4 21:04:39 10° SW 21:06:00 18° SW 21:06:00 18° SW
